Location: Bruch
(44.2051°N, 0.4120°E)
Time: 12:34:12
(UTC+00:00)

Cosmos 2184 Rocket - Pass Details

Date: 29 November 2020
Orbit: 958 x 1003 km, 82.9° (Epoch: 25 January)

Event Time Altitude Azimuth Distance (km) Brightness Sun altitude
Rises 05:44:53 0° 198° (SSW) 3,679 7.0 -15.2°
Reaches altitude 10° 05:47:25 10° 202° (SSW) 2,741 6.3 -14.7°
Maximum altitude 05:53:38 60° 281° (WNW) 1,133 4.0 -13.7°
Drops below altitude 10° 05:59:57 10° 1° (N) 2,782 6.2 -12.6°
Sets 06:02:33 0° 6° (N) 3,738 6.9 -12.1°
